Home   Weather   Madaba   Past weeks

Flag for Jordan Past Weather in Madaba, Jordan — Yesterday and Last 2 Weeks

Now
48 °F

Clear.


Feels Like: 48 °F
Forecast: 44 / 56 °F
Wind: No wind

Location: Queen Alia Airport

Current Time: Jan 18, 2017 at 8:40:39 pm

Latest Report: Jan 18, 2017 at 7:00 pm


Visibility: 5 mi

Pressure: 30.15 "Hg (27.41 "Hg at 788m altitude)

Humidity: 66%

Dew Point: 37 °F

Location of MadabaLocation

Past Weather in Madaba — Graph

°F

Madaba Temperature Yesterday

Maximum temperature yesterday: 63 °F (at 2:00 pm)
Minimum temperature yesterday: 39 °F (at 7:00 am)
Average temperature yesterday: 50 °F

High & Low Weather Summary for the Past Weeks

 TemperatureHumidityPressure
High64 °F (Jan 18, 2:00 pm)100% (Jan 7, 9:00 am)30.39 "Hg (Jan 7, 9:00 am)
Low27 °F (Jan 7, 9:00 am)26% (Jan 18, 2:00 pm)29.89 "Hg (Jan 15, 3:00 am)
Average45 °F64%30.12 "Hg
* Reported Jan 3 7:00 pm — Jan 18 7:00 pm, Madaba, Weather by CustomWeather, © 2017

Note: Actual official high and low records may vary slightly from our data, if they occured in-between our weather recording intervals... More about our weather records

Advertising

Madaba Weather History for the Previous 24 Hours

Scroll right to see more
 ConditionsComfort  
Time TempWeatherWind HumidityBarometerVisibility
7:00 pm
Wed, Jan 18
48 °FClear.No wind66%30.15 "Hg5 mi
6:00 pm52 °FClear.5 mph62%30.12 "Hg5 mi
5:00 pm55 °FClear.9 mph59%30.12 "Hg5 mi
4:00 pm59 °FClear.9 mph48%30.09 "Hg5 mi
3:00 pm61 °FClear.12 mph39%30.07 "Hg5 mi
2:00 pm64 °FClear.9 mph26%30.07 "Hg5 mi
1:00 pm63 °FHaze.No wind32%30.07 "Hg4 mi
12:00 pm59 °FHaze.No wind39%30.09 "Hg4 mi
10:00 am52 °FHaze.7 mph58%30.12 "Hg3 mi
9:00 am45 °FHaze.9 mph66%30.12 "Hg2 mi
8:00 am41 °FSleet. Haze.7 mph76%30.07 "Hg3 mi
7:00 am41 °FSleet. Haze.7 mph76%30.07 "Hg3 mi
6:00 am41 °FSleet. Haze.12 mph70%30.07 "Hg3 mi
5:00 am41 °FClear.12 mph76%30.07 "Hg4 mi
4:00 am41 °FClear.5 mph70%30.07 "Hg4 mi
3:00 am41 °FClear.5 mph70%30.07 "Hg4 mi
2:00 am41 °FClear.5 mph70%30.07 "Hg4 mi
12:00 am45 °FClear.5 mph61%30.07 "Hg4 mi
11:00 pm
Tue, Jan 17
48 °FClear.5 mph54%30.07 "Hg4 mi
10:00 pm48 °FClear.5 mph58%30.09 "Hg4 mi
9:00 pm46 °FClear.5 mph62%30.09 "Hg4 mi
8:00 pm48 °FClear.7 mph58%30.09 "Hg4 mi
Weather by CustomWeather, © 2017

See weather overviewHow to use our weather pages